[ hide orbit diagram ]
For accurate long-term ephemerides, please instead use our Horizons system.This orbit viewer was implemented using two-body methods, and hence should not be used for determining accurate long-term trajectories (over several years or decades) or planetary encounter circumstances.
Orbital Elements at Epoch 2459000.5 (2020-May-31.0) TDB
Reference: JPL 26 (heliocentric ecliptic J2000)
Element | Value | Uncertainty (1-sigma) | Units |
e | .1111188107306785 | 3.4891e-08 | |
a | 2.889983382798506 | 1.8699e-08 | au |
q | 2.568851866270513 | 1.0178e-07 | au |
i | 2.619487927829562 | 4.482e-06 | deg |
node | 168.8890594900492 | 9.0911e-05 | deg |
peri | 286.2802794000872 | 9.3962e-05 | deg |
M | 157.7467924770871 | 2.3758e-05 | deg |
tp | 2458214.179710702572 (2018-Apr-05.67971070) | 0.00011543 | TDB |
period | 1794.491664153433 4.91 | 1.7416e-05 4.768e-08 | d yr |
n | .2006139160138329 | 1.947e-09 | deg/d |
Q | 3.211114899326499 | 2.0777e-08 | au |
|
| | Orbit Determination Parameters
Additional Information
|
[ show covariance matrix ]
Physical Parameter Table
Parameter |
Symbol |
Value |
Units |
Sigma |
Reference |
Notes |
absolute magnitude |
H |
15.2 |
|
n/a |
MPO299591 |
|
|
101650 (1999 CU62) Discovered 1999-Feb-12 by LINEAR at Socorro |
Reference: 20051019/Numbers.arc | Last Updated: 2005-10-26 |
|
[ show close-approach data ]
Alternate Designations
1999 CU62 = 1999 CS2 = 1999 DH9 = 2002 TO245 |
|
|